Погода в Дубне

Россия / Московская область     56˚44′38″N   37˚10′23″E
темп.,
°C
ветер,
м/с
пор.,
м/с
влажн.,
%
обл.,
%
осадки,
мм/ч
давл.,
гПа
погр.,
м
15 января, пт
пт1500:00−20˚с2599100 0.2 1008194
03:00−20˚ссз2399100 0.4 1010141
06:00−21˚ссз2298100 0.1 101073
09:00−23˚ссз229991 0.1 101122
12:00−21˚с129594 0.0 1013167
15:00−20˚с129596 0.0 1013187
18:00−22˚ссв1297100 0.0 101423
21:00−22˚ссв2497100 0.0 101389
16 января, сб
сб1600:00−21˚с2597100 0.0 1013158
03:00−20˚с2596100 0.0 1012234
06:00−19˚ссз3797100 0.0 1010273
09:00−18˚ссз4896100 0.5 1010352
12:00−17˚ссз5995100 1.0 1009397
15:00−17˚ссз4993100 1.7 1008459
18:00−17˚ссз41092100 0.1 1008533
21:00−18˚ссз4993100 0.1 1009499
17 января, вс
вс1700:00−20˚ссз3895100 0.0 1010397
03:00−21˚ссз3995100 0.1 1012357
06:00−25˚ссз259793 0.0 1013126
09:00−27˚ссз239847 0.0 101562
12:00−22˚с24952 0.0 1017228
15:00−20˚ссз239627 0.0 1018180
18:00−23˚сз22970 0.0 101920
21:00−24˚зсз11960 0.0 102020
18 января, пн
пн1800:00−24˚з12950 0.0 102020
03:00−24˚з12954 0.0 102020
06:00−23˚зюз129940 0.0 102020
09:00−23˚зюз229956 0.0 102122
12:00−18˚зюз129644 0.0 1021124
15:00−16˚зюз119760 0.0 102039
18:00−19˚з229880 0.0 102120
21:00−19˚юз129971 0.0 102220
19 января, вт
вт1900:00−18˚зсз129891 0.1 102220
03:00−19˚зюз119887 0.1 102220
06:00−19˚з1199100 0.1 102220
09:00−19˚з119999 0.1 102320
12:00−15˚з119596 0.0 1023115
15:00−14˚з119797 0.1 102222
18:00−17˚з129877 0.0 102320
21:00−17˚зюз129868 0.0 102320